Regional Weather Roundup
Issued by NWS Jackson, KY

Home | Current Version | Previous Version | Text Only | Print | Product List | Glossary Off
Versions: 1 2 3 4 5 6 7 8 9 10 11 12 13 14 15 16 17 18 19 20 21 22 23 24 25 26 27 28 29 30 31 32 33 34 35 36 37 38 39 40 41 42 43 44 45 46 47 48 49 50

000
ASUS43 KJKL 211219
RWRJKL

EAST KENTUCKY HOURLY WEATHER ROUNDUP
NATIONAL WEATHER SERVICE JACKSON KY
700 AM EST SUN DEC 21 2014

NOTE: "FAIR" INDICATES FEW OR NO CLOUDS BELOW 12,000 FEET WITH
NO SIGNIFICANT WEATHER AND/OR OBSTRUCTIONS TO VISIBILITY.

* THESE REPORTS ARE NOT UNDER NWS QUALITY CONTROL AND MAY NOT
  REPORT WEATHER SUCH AS PRECIPITATION AND FOG.

KYZ079-080-083-085-087-088-110-112-115-119-120-211300
...EASTERN KENTUCKY...

CITY           SKY/WX    TMP DP  RH WIND       PRES   REMARKS
JACKSON        CLEAR     27  22  81 NE3       30.26R
6HR MIN TEMP:  26; 6HR MAX TEMP:  29;

LONDON         CLEAR     23  52 100 CALM      30.26R
6HR MIN TEMP:  23; 6HR MAX TEMP:  26;

SOMERSET*      CLEAR     21  21 100 CALM      30.29R FOG
MONTICELLO*    CLEAR     18  18 100 CALM      30.29R FOG
6HR MIN TEMP:  18; 6HR MAX TEMP:  24;

MIDDLESBORO*   FOG       23  22  99 CALM      30.27S VSB 1
6HR MIN TEMP:  23; 6HR MAX TEMP:  28;

HARLAN APT*    CLOUDY    27  27 100 CALM      30.24S VSB 3/4
HAZARD APT*    SUNNY     25  25 100 CALM      30.27
BLACK MTN*       N/A     28  23  80 SW2         N/A
PIKEVILLE APT* CLEAR     27  25  93 CALM      30.26R
BIG SANDY*     SUNNY     24  24  97 CALM      30.28R
6HR MIN TEMP:  24; 6HR MAX TEMP:  30;

MOREHEAD APT*  CLOUDY    30  27  86 E6        30.31S WCI  24
ASHLAND*       CLOUDY    32  25  74 NE3       30.31R
$$

KYZ035-036-041-042-044-050-067-078-099-211300
...CENTRAL KENTUCKY...

CITY           SKY/WX    TMP DP  RH WIND       PRES   REMARKS
MT STERLING*   CLEAR     23  21  93 E3        30.30S
FLEMING/MASON* CLOUDY    28  27  93 NE5       30.31S FOG     WCI  23
DANVILLE*      CLOUDY    21  19  93 CALM      30.29R FOG
RICHMOND*        N/A     19  19 100 CALM      30.27S
LEXINGTON      CLEAR     22  20  92 NE7       30.28S FOG     WCI  13
6HR MIN TEMP:  20; 6HR MAX TEMP:  25;

FRANKFORT      CLEAR     19  16  88 CALM      30.28S
6HR MIN TEMP:  19; 6HR MAX TEMP:  24;

$$

KYZ091>093-OHZ055-061-077-WVZ005-015-034-035-042-211300
...SOUTHERN OHIO/WEST VIRGINIA...

CITY           SKY/WX    TMP DP  RH WIND       PRES   REMARKS
COVINGTON      MOCLDY    29  21  72 E8        30.29F WCI  21
COLUMBUS       CLOUDY    30  20  66 CALM      30.31R
DAYTON           N/A     22  19  89 CALM      30.31R FOG
WILMINGTON     MOCLDY    22  19  89 CALM      30.30R FOG
HUNTINGTON     CLOUDY    30  27  88 E3        30.31R
CHARLESTON     CLEAR     28  24  85 CALM      30.30R
PINEVILLE*     CLEAR     29  29 100 MISG      30.29S
BECKLEY        CLEAR     28  25  88 CALM      30.21S
BLUEFIELD      CLOUDY    32  27  81 CALM      30.20R
$$

VAZ002-007-008-TNZ017-027-036-066-071-211300
...SOUTHWEST VIRGINIA/EAST TENNESSEE...

CITY           SKY/WX    TMP DP  RH WIND       PRES   REMARKS
WISE*          CLEAR     30  30 100 E3        30.21R FOG
JONESVILLE*    SUNNY     21  19  93 CALM      30.27S
ABINGDON*      CLOUDY    37  37  99 CALM      30.22R FOG
BRISTOL        CLOUDY    37  36  96 CALM      30.24R FOG
KNOXVILLE      CLOUDY    39  30  70 NE6       30.23R WCI  35
OAK RIDGE      CLEAR     29  25  85 CALM      30.25S
CROSSVILLE     CLEAR     28  22  78 CALM      30.21R
NASHVILLE      CLEAR     25  23  92 S3        30.25R
$$

...KEY TO REMARKS...
VSB - VISIBILITY IN MILES
WCI - WIND CHILL INDEX
HX  - HEAT INDEX

$$


USA.gov is the U.S. government's official web portal to all federal, state and local government web resources and services.